TimeEST,TemperatureF,Dew PointF,Humidity,Sea Level PressureIn,VisibilityMPH,Wind Direction,Wind SpeedMPH,Gust SpeedMPH,PrecipitationIn,Events,Conditions,WindDirDegrees,DateUTC
12:51 AM,16.0,6.1,65,30.50,10.0,Calm,Calm,-,N/A,,Overcast,0,2013-01-28 05:51:00
1:51 AM,18.0,6.1,60,30.48,10.0,Calm,Calm,-,N/A,,Overcast,0,2013-01-28 06:51:00
2:51 AM,19.0,6.1,57,30.46,10.0,Calm,Calm,-,N/A,,Overcast,0,2013-01-28 07:51:00
3:51 AM,19.0,7.0,59,30.44,10.0,Calm,Calm,-,N/A,,Overcast,0,2013-01-28 08:51:00
4:51 AM,19.9,5.0,52,30.43,10.0,Calm,Calm,-,N/A,,Overcast,0,2013-01-28 09:51:00
5:51 AM,19.0,9.0,65,30.42,10.0,Calm,Calm,-,N/A,,Overcast,0,2013-01-28 10:51:00
6:51 AM,19.0,10.0,68,30.41,10.0,Calm,Calm,-,N/A,,Overcast,0,2013-01-28 11:51:00
7:51 AM,19.0,9.0,65,30.39,10.0,ENE,3.5,-,N/A,,Overcast,70,2013-01-28 12:51:00
8:51 AM,19.9,9.0,62,30.37,10.0,Calm,Calm,-,N/A,,Overcast,0,2013-01-28 13:51:00
9:51 AM,21.9,7.0,53,30.34,10.0,SE,3.5,-,N/A,,Overcast,140,2013-01-28 14:51:00
10:51 AM,23.0,12.0,63,30.32,5.0,South,10.4,-,0.00,Snow,Light Snow,170,2013-01-28 15:51:00
10:58 AM,23.0,14.0,68,30.29,2.0,South,8.1,-,0.00,Snow,Light Snow,180,2013-01-28 15:58:00
11:02 AM,21.2,14.0,74,30.29,1.8,South,8.1,-,0.00,Snow,Light Snow,170,2013-01-28 16:02:00
11:13 AM,21.2,17.6,86,30.29,0.5,South,6.9,-,0.00,Snow,Snow,170,2013-01-28 16:13:00
11:31 AM,21.2,17.6,86,30.26,0.2,South,6.9,-,0.01,Fog-Snow,Snow,170,2013-01-28 16:31:00
11:51 AM,21.9,19.0,89,30.25,0.2,South,5.8,-,0.03,Fog-Snow,Snow,170,2013-01-28 16:51:00
12:05 PM,21.2,19.4,93,30.22,0.5,Calm,Calm,-,0.01,Fog-Snow,Snow,0,2013-01-28 17:05:00
12:15 PM,21.2,19.4,93,30.21,0.5,Calm,Calm,-,0.02,Fog-Snow,Light Snow,0,2013-01-28 17:15:00
12:51 PM,23.0,19.9,88,30.17,0.5,Calm,Calm,-,0.05,Snow,Light Snow,0,2013-01-28 17:51:00
1:20 PM,24.8,21.2,86,30.11,1.2,Calm,Calm,-,0.00,Snow,Light Snow,0,2013-01-28 18:20:00
1:28 PM,24.8,21.2,86,30.09,1.5,Variable,3.5,-,0.01,Snow,Light Snow,0,2013-01-28 18:28:00
1:35 PM,24.8,21.2,86,30.08,1.5,SE,5.8,-,0.01,Snow,Light Snow,140,2013-01-28 18:35:00
1:48 PM,26.6,23.0,86,30.08,2.5,SSE,5.8,-,0.01,Snow,Light Snow,160,2013-01-28 18:48:00
1:51 PM,27.0,23.0,85,30.10,2.5,SSE,8.1,-,0.01,Snow,Light Snow,160,2013-01-28 18:51:00
2:14 PM,28.4,23.0,80,30.09,4.0,South,9.2,-,0.00,,Haze,170,2013-01-28 19:14:00
2:45 PM,28.4,24.8,86,30.09,4.0,South,6.9,-,0.00,Rain,Light Freezing Rain,180,2013-01-28 19:45:00
2:51 PM,28.0,23.0,81,30.10,4.0,South,9.2,16.1,0.00,Rain,Light Freezing Rain,170,2013-01-28 19:51:00
3:00 PM,28.4,24.8,86,30.08,2.5,SSE,8.1,-,0.00,,Heavy Ice Pellets,160,2013-01-28 20:00:00
3:10 PM,28.4,24.8,86,30.08,1.5,SSE,8.1,-,0.02,Snow,Light Snow,160,2013-01-28 20:10:00
3:15 PM,28.4,24.8,86,30.08,2.5,SSE,3.5,-,0.02,Snow,Light Snow,150,2013-01-28 20:15:00
3:29 PM,28.4,24.8,86,30.07,1.5,SSE,6.9,-,0.02,Snow,Light Snow,160,2013-01-28 20:29:00
3:51 PM,25.0,23.0,92,30.08,2.5,Variable,4.6,-,0.03,Snow,Light Snow,0,2013-01-28 20:51:00
4:11 PM,24.8,21.2,86,30.05,2.5,ENE,4.6,-,0.00,Snow,Light Snow,60,2013-01-28 21:11:00
4:51 PM,27.0,24.1,89,30.04,2.0,Calm,Calm,-,0.00,Snow,Light Snow,0,2013-01-28 21:51:00
5:51 PM,30.0,27.0,88,30.04,2.5,Calm,Calm,-,0.00,Snow,Light Snow,0,2013-01-28 22:51:00
6:44 PM,24.8,24.8,100,30.02,1.5,NNE,4.6,-,0.00,Rain,Light Freezing Rain,20,2013-01-28 23:44:00
6:51 PM,26.1,24.1,92,30.04,1.5,Calm,Calm,-,0.01,Rain,Light Freezing Rain,0,2013-01-28 23:51:00
7:02 PM,26.6,24.8,93,30.00,1.5,Calm,Calm,-,0.01,Rain,Light Freezing Rain,0,2013-01-29 00:02:00
7:06 PM,26.6,24.8,93,30.00,1.5,Calm,Calm,-,0.02,Rain,Light Freezing Rain,0,2013-01-29 00:06:00
7:15 PM,26.6,24.8,93,30.00,1.5,Calm,Calm,-,0.02,Rain,Light Freezing Rain,0,2013-01-29 00:15:00
7:51 PM,27.0,25.0,92,30.01,1.5,Calm,Calm,-,0.02,Rain,Light Freezing Rain,0,2013-01-29 00:51:00
8:51 PM,26.1,25.0,96,29.99,1.5,Calm,Calm,-,0.01,Rain,Light Freezing Rain,0,2013-01-29 01:51:00
9:51 PM,27.0,25.0,92,29.98,1.5,North,4.6,-,0.00,Rain,Light Freezing Rain,350,2013-01-29 02:51:00
10:30 PM,26.6,24.8,93,29.97,1.0,North,3.5,-,0.00,,Overcast,360,2013-01-29 03:30:00
10:51 PM,27.0,25.0,92,29.98,1.0,North,4.6,-,0.00,,Overcast,10,2013-01-29 03:51:00
10:55 PM,26.6,24.8,93,29.97,2.0,North,3.5,-,N/A,,Overcast,360,2013-01-29 03:55:00
11:05 PM,26.6,24.8,93,29.97,2.0,North,4.6,-,0.00,,Light Freezing Drizzle,350,2013-01-29 04:05:00
11:13 PM,26.6,24.8,93,29.97,1.5,North,4.6,-,0.00,,Light Freezing Drizzle,350,2013-01-29 04:13:00
11:46 PM,24.8,24.8,100,29.99,1.2,North,5.8,-,0.00,,Light Freezing Drizzle,350,2013-01-29 04:46:00
11:51 PM,25.0,24.1,96,30.00,1.2,North,3.5,-,0.00,Rain,Light Freezing Rain,360,2013-01-29 04:51:00